CYIOCYRT

Guest
Details From CYIO - POND INLET
To CYRT - RANKIN INLET
Flight Number -
Tags generated
Created
Modified
Stats Distance 1,089 nm / 2,017 km
Max Altitude 0 ft / 0 m
Waypoints 8
Social Downloads 0
Likes 0
Share VATSIM

Download

Looking for another format? Having issues loading an existing format? Contact us
Advertisement - Login to hide

Notes

None

Route

CYIO YIO RR30 YSR 5E82 RB AR22 RT CYRT

ID Type Via Altitude Latitude Longitude Leg Dist Tot Dist Heading (true) Name
O CYIO APT - 0 ft / 0 m 72.68333˚ -77.96666˚ - 0 nm - POND INLET
YIO NDB - 0 ft / 0 m 72.69311˚ -77.95097˚ 0 nm 0 nm 26° / 26° POND INLET NDB
YSR VOR RR30 (AWY-LO) 0 ft / 0 m 72.97472˚ -84.53306˚ 117 nm 118 nm 281° / 275° -
RB NDB 5E82 (AWY-LO) 0 ft / 0 m 74.74714˚ -94.99503˚ 204 nm 322 nm 306° / 296° RESOLUTE BAY NDB
YHK NDB AR22 (AWY-LO) 0 ft / 0 m 68.62611˚ -95.85833˚ 367 nm 690 nm 183° / 182° GJOA HAVEN NDB
BK NDB AR22 (AWY-LO) 0 ft / 0 m 64.31472˚ -96.06475˚ 258 nm 949 nm 181° / 181° BAKER LAKE NDB
RT NDB AR22 (AWY-LO) 0 ft / 0 m 62.82528˚ -92.10944˚ 138 nm 1087 nm 128° / 132° RANKIN INLET NDB
O CYRT APT - 0 ft / 0 m 62.81139˚ -92.11584˚ 0 nm 1088 nm 192° / 192° RANKIN INLET

Altitude Profile

Advertisement - Login to hide

Weather


0- 5 10 15 20 25 30 35+ Temperature / ° C

Clouds and Precipitation
Forecast for 2018-05-20 18:00 UTC. Updated 3 hours ago

Ground ~20,000 ft ~40,000 ft Winds

CYIO

Details ICAO CYIO (YIO)
Name POND INLET
Region Canada
Timezone America/Iqaluit (UTC-4.0)
Stats Elevation 181 ft / 55 m (AMSL)
Location 72.683334° -77.966664°
Runways 1
Magnetic Variation 36.444° W

METAR

CYIO 202000Z AUTO 22003KT 9SM OVC050 M07/M10 A2972 RMK SLP074

Decode

TAF

TAF CYIO 201838Z 2019/2107 VRB03KT P6SM -SN BKN050 TEMPO 2019/2107 P6SM NSW SCT050 RMK FCST BASED ON AUTO OBS. NXT FCST BY 210100Z

Decode

Departure Runways

ID Width Length Bearing (true) Bearing (mag) Surface Threshold Offset Overrun Length
02T 100 ft / 30 m 3,986 ft / 1,215 m 22.99° 59.43° Gravel 0 ft / 0 m 0 ft / 0 m
20T 100 ft / 30 m 3,986 ft / 1,215 m 203.00° 239.44° Gravel 0 ft / 0 m 0 ft / 0 m

CYRT

Details ICAO CYRT (YRT)
Name RANKIN INLET
Region Canada
Timezone America/Rankin_Inlet (UTC-5.0)
Stats Elevation 94 ft / 29 m (AMSL)
Location 62.811388° -92.115836°
Runways 1
Magnetic Variation 6.801° W

METAR

CYRT 202000Z 32019KT 12SM DRSN FEW012 BKN050 M07/M10 A2997 RMK SC2SC3 SLP153

Decode

TAF

TAF CYRT 201738Z 2018/2106 34020G30KT 5SM -SN BLSN BKN010 BKN050 TEMPO 2018/2106 P6SM NSW BKN050 BECMG 2102/2104 31015G25KT RMK NXT FCST BY 210000Z

Decode

Destination Runways

ID Width Length Bearing (true) Bearing (mag) Surface Threshold Offset Overrun Length
13T 150 ft / 46 m 5,982 ft / 1,823 m 129.03° 135.83° Asphalt 0 ft / 0 m 0 ft / 0 m
31T 150 ft / 46 m 5,982 ft / 1,823 m 309.05° 315.85° Asphalt 0 ft / 0 m 0 ft / 0 m